Location: *
(39.6167°S, 171.5333°W)
Time: 23:02:08
(UTC+00:00)

Cosmos 1812 Rocket - Pass Details

Date: 13 May 2021
Orbit: 604 x 633 km, 82.5° (Epoch: 15 June)

Event Time Altitude Azimuth Distance (km) Brightness Sun altitude
Rises 17:17:48 0° 344° (NNW) 2,853 6.9 -12.6°
Reaches altitude 10° 17:20:02 10° 339° (NNW) 1,958 6.1 -12.2°
Maximum altitude 17:24:17 56° 260° (W) 733 3.6 -11.4°
Drops below altitude 10° 17:28:38 10° 181° (S) 1,994 6.0 -10.6°
Sets 17:30:55 0° 177° (S) 2,911 6.9 -10.2°
